Simultaneous Nadir Overpasses (SNOs) Predictions

Prediction of SNOs between LANDSAT-8 and METOP-B Satellite Orbit:

Table of predicted SNOs for the next 14.0 days since TLE Epoch: 7/9/2022
Index Date (LANDSAT-8) Time (LANDSAT-8) Lat,Lon (LANDSAT-8) SZA (LANDSAT-8 ) Date (METOP-B) Time (METOP-B) Lat,Lon (METOP-B) SZA (METOP-B ) Distance(km) Time Diff (sec)
1 07/10/2022 18:08:11 -81.16, 128.63 118.91 07/10/2022 18:07:24 -81.16, 128.53 118.95 1.82 47
2 07/10/2022 18:57:37 81.17, -63.63 61.11 07/10/2022 18:58:03 81.17, -63.62 61.13 0.64 26
3 07/13/2022 13:42:26 -81.15,-165.03 118.55 07/13/2022 13:41:46 -81.16,-165.03 118.57 0.37 40
4 07/13/2022 14:31:51 81.18, 3.05 61.52 07/13/2022 14:32:24 81.18, 3.18 61.56 2.34 33
5 07/16/2022 09:16:39 -81.17, -98.40 118.09 07/16/2022 09:16:06 -81.17, -98.24 118.09 2.74 33
6 07/16/2022 10:06:04 81.19, 69.65 61.98 07/16/2022 10:06:45 81.18, 69.57 61.98 1.52 41
7 07/19/2022 04:50:53 -81.17, -31.84 117.60 07/19/2022 04:50:28 -81.17, -31.87 117.61 0.66 25
8 07/19/2022 05:40:18 81.20, 136.18 62.47 07/19/2022 05:41:06 81.19, 136.31 62.50 2.23 48
9 07/22/2022 00:25:07 -81.18, 34.65 117.07 07/22/2022 00:24:50 -81.17, 34.47 117.10 3.10 17



Historial Predications of SNOs between LANDSAT-8 and METOP-B
